EFHKFMI Weather Reports


Display with metric or nautical units.
time (UTC)temp
F
wind
direction
speed
MPH
gust
MPH
rain 1hr
in
rain 24hr
in
rain mn
in
humidity
%
barometer
mb
20260507044722 42 45 7.0 9.0 0.00 0.00 0.00 41 1015.8
20260507042722 42 46 7.0 10.0 0.00 0.00 0.00 42 1015.8
20260507040722 40 25 6.0 9.0 0.00 0.00 0.00 44 1015.8
20260507034722 39 25 7.0 10.0 0.00 0.00 0.00 47 1015.8
20260507032723 38 26 6.0 10.0 0.00 0.00 0.00 48 1015.8
20260507030722 35 28 6.0 8.0 0.00 0.00 0.00 54 1015.6
20260507024722 34 26 5.0 15.0 0.00 0.00 0.00 54 1015.6
20260507022722 34 4 4.0 11.0 0.00 0.00 0.00 54 1015.7
20260507020722 33 350 4.0 10.0 0.00 0.00 0.00 55 1015.7
20260507014722 36 23 3.0 10.0 0.00 0.00 0.00 49 1015.5
20260507012722 36 17 4.0 6.0 0.00 0.00 0.00 48 1015.5
20260507010722 36 23 5.0 7.0 0.00 0.00 0.00 49 1015.5
20260507004721 36 20 5.0 7.0 0.00 0.00 0.00 47 1015.4
20260507002722 37 20 6.0 9.0 0.00 0.00 0.00 45 1015.3
20260507000722 36 20 6.0 7.0 0.00 0.00 0.00 47 1015.3
20260506234722 38 9 7.0 9.0 0.00 0.00 0.00 41 1015.2
20260506232722 38 18 8.0 10.0 0.00 0.00 0.00 42 1015.2
20260506230723 38 9 7.0 9.0 0.00 0.00 0.00 42 1015.2
20260506224721 39 4 6.0 9.0 0.00 0.00 0.00 41 1015.2
20260506222722 39 360 6.0 8.0 0.00 0.00 0.00 41 1015.1
20260506220722 36 355 7.0 8.0 0.00 0.00 0.00 57 1015.1
20260506214721 33 1 5.0 6.0 0.00 0.00 0.00 77 1015.0
20260506212722 31 351 6.0 6.0 0.00 0.00 0.00 85 1014.9
20260506210721 32 349 4.0 5.0 0.00 0.00 0.00 83 1014.8
20260506204721 33 335 2.0 3.0 0.00 0.00 0.00 82 1014.7
20260506202721 34 333 1.0 2.0 0.00 0.00 0.00 79 1014.6
20260506200721 37 14 2.0 2.0 0.00 0.00 0.00 70 1014.6
20260506194721 38 347 1.0 2.0 0.00 0.00 0.00 66 1014.4
20260506192720 40 267 4.0 4.0 0.00 0.00 0.00 63 1014.3
20260506190721 42 276 4.0 5.0 0.00 0.00 0.00 54 1014.2
20260506184720 45 246 6.0 7.0 0.00 0.00 0.00 48 1014.1
20260506182721 47 241 6.0 8.0 0.00 0.00 0.00 45 1014.1
20260506180721 47 247 7.0 9.0 0.00 0.00 0.00 44 1014.1
20260506174721 48 237 8.0 11.0 0.00 0.00 0.00 42 1014.0
20260506172720 49 226 10.0 13.0 0.00 0.00 0.00 39 1013.8
20260506170720 50 220 11.0 14.0 0.00 0.00 0.00 38 1013.6
20260506164720 50 227 11.0 15.0 0.00 0.00 0.00 38 1013.6
20260506162720 50 223 13.0 16.0 0.00 0.00 0.00 37 1013.5
20260506160720 50 223 13.0 17.0 0.00 0.00 0.00 38 1013.5
20260506154721 51 217 15.0 19.0 0.00 0.00 0.00 38 1013.4
20260506152720 51 229 13.0 16.0 0.00 0.00 0.00 36 1013.4
20260506150720 51 225 12.0 17.0 0.00 0.00 0.00 33 1013.5
20260506144720 51 233 11.0 15.0 0.00 0.00 0.00 33 1013.6
20260506142719 51 223 11.0 17.0 0.00 0.00 0.00 31 1013.6
20260506140719 52 233 11.0 19.0 0.00 0.00 0.00 32 1013.6
20260506134719 51 238 12.0 18.0 0.00 0.00 0.00 33 1013.5
20260506132719 51 259 9.0 15.0 0.00 0.00 0.00 31 1013.4
20260506130719 50 303 6.0 10.0 0.00 0.00 0.00 26 1013.4
20260506124719 51 313 6.0 11.0 0.00 0.00 0.00 25 1013.5
20260506122719 51 286 10.0 14.0 0.00 0.00 0.00 27 1013.5
20260506120719 53 274 13.0 20.0 0.00 0.00 0.00 23 1013.4
20260506114719 53 262 10.0 17.0 0.00 0.00 0.00 24 1013.4
20260506112719 52 267 12.0 18.0 0.00 0.00 0.00 24 1013.5
20260506110719 52 286 13.0 17.0 0.00 0.00 0.00 23 1013.5
20260506104720 50 253 11.0 18.0 0.00 0.00 0.00 26 1013.3
20260506102720 52 271 12.0 16.0 0.00 0.00 0.00 25 1013.3
20260506100720 51 288 9.0 15.0 0.00 0.00 0.00 26 1013.2
20260506094720 50 277 13.0 19.0 0.00 0.00 0.00 27 1013.1
20260506092719 50 271 8.0 15.0 0.00 0.00 0.00 28 1013.1
20260506090719 50 303 9.0 17.0 0.00 0.00 0.00 30 1013.0
20260506084719 50 268 9.0 15.0 0.00 0.00 0.00 33 1012.9
20260506082720 48 291 11.0 15.0 0.00 0.00 0.00 36 1012.9
20260506080719 47 320 11.0 19.0 0.00 0.00 0.00 34 1012.8
20260506072719 47 273 11.0 16.0 0.00 0.00 0.00 40 1012.5
20260506070719 47 296 11.0 16.0 0.00 0.00 0.00 44 1012.5
20260506060719 44 281 8.0 11.0 0.00 0.00 0.00 56 1012.1
20260506050719 41 288 11.0 14.0 0.00 0.00 0.00 64 1011.6